Precipitable_Water
0.26 0.27 0.28 0.28 0.28 0.29 0.29 0.30 0.30 0.31 0.31 0.31 0.30 0.31 0.30 0.30 0.30 0.29 0.29 0.30 0.31 0.33 0.33 0.31 0.31 0.33 0.36 0.40 0.41 0.43 0.44 0.45 0.46 0.47 0.47 0.47 0.46 0.44 0.44 0.43 0.40 0.38 0.37 0.40 0.42 0.41 0.41 0.43 0.43 0.42 0.44 0.42 0.43 0.44 0.44 0.43 0.41 0.40 0.39 0.38 0.37 0.36 0.35
0.26 0.27 0.28 0.28 0.29 0.29 0.30 0.30 0.31 0.31 0.31 0.30 0.29 0.29 0.31 0.30 0.30 0.29 0.28 0.29 0.29 0.31 0.32 0.32 0.30 0.31 0.34 0.38 0.40 0.41 0.42 0.43 0.44 0.45 0.45 0.45 0.45 0.44 0.43 0.44 0.41 0.39 0.38 0.38 0.41 0.41 0.42 0.43 0.44 0.41 0.43 0.42 0.42 0.42 0.43 0.42 0.41 0.40 0.39 0.38 0.37 0.36 0.35
0.26 0.26 0.27 0.28 0.29 0.29 0.30 0.31 0.31 0.32 0.32 0.31 0.30 0.29 0.29 0.29 0.29 0.28 0.28 0.28 0.28 0.29 0.31 0.32 0.31 0.30 0.32 0.36 0.38 0.40 0.41 0.43 0.43 0.44 0.44 0.43 0.44 0.43 0.44 0.44 0.44 0.41 0.39 0.39 0.40 0.42 0.42 0.42 0.43 0.43 0.44 0.44 0.43 0.43 0.43 0.41 0.41 0.40 0.40 0.39 0.38 0.37 0.36
0.25 0.25 0.27 0.27 0.28 0.29 0.30 0.31 0.31 0.32 0.32 0.32 0.31 0.29 0.29 0.29 0.29 0.29 0.28 0.28 0.28 0.28 0.29 0.30 0.30 0.29 0.31 0.34 0.35 0.37 0.39 0.41 0.42 0.42 0.43 0.43 0.43 0.43 0.43 0.44 0.44 0.43 0.41 0.41 0.39 0.40 0.41 0.42 0.42 0.43 0.44 0.45 0.44 0.43 0.41 0.41 0.41 0.41 0.39 0.39 0.39 0.38 0.37
0.24 0.26 0.26 0.25 0.25 0.27 0.28 0.28 0.29 0.30 0.31 0.31 0.31 0.30 0.29 0.28 0.28 0.28 0.29 0.29 0.29 0.29 0.30 0.31 0.30 0.29 0.30 0.32 0.33 0.36 0.37 0.39 0.39 0.40 0.41 0.41 0.42 0.42 0.42 0.42 0.43 0.43 0.42 0.40 0.39 0.39 0.40 0.40 0.41 0.42 0.42 0.43 0.42 0.42 0.40 0.40 0.40 0.40 0.39 0.39 0.39 0.39 0.38
0.24 0.24 0.23 0.24 0.24 0.25 0.26 0.27 0.28 0.28 0.28 0.29 0.29 0.29 0.28 0.27 0.27 0.27 0.28 0.29 0.29 0.30 0.30 0.31 0.32 0.31 0.31 0.31 0.31 0.33 0.36 0.37 0.38 0.39 0.39 0.40 0.41 0.42 0.42 0.41 0.40 0.41 0.41 0.40 0.38 0.38 0.37 0.38 0.39 0.39 0.40 0.41 0.42 0.40 0.39 0.39 0.39 0.40 0.40 0.39 0.38 0.38 0.37
0.21 0.22 0.22 0.23 0.23 0.24 0.25 0.26 0.27 0.27 0.27 0.27 0.27 0.28 0.27 0.26 0.26 0.26 0.27 0.29 0.29 0.29 0.30 0.31 0.31 0.32 0.32 0.30 0.30 0.30 0.32 0.35 0.37 0.38 0.38 0.39 0.39 0.41 0.40 0.39 0.39 0.39 0.38 0.38 0.37 0.37 0.37 0.37 0.38 0.38 0.37 0.40 0.41 0.40 0.39 0.38 0.37 0.38 0.39 0.39 0.38 0.37 0.37
0.20 0.21 0.22 0.22 0.23 0.24 0.24 0.25 0.25 0.25 0.26 0.26 0.26 0.26 0.26 0.26 0.25 0.25 0.27 0.29 0.30 0.29 0.29 0.30 0.30 0.31 0.32 0.31 0.30 0.29 0.30 0.33 0.34 0.36 0.36 0.38 0.39 0.39 0.39 0.38 0.38 0.38 0.37 0.37 0.36 0.35 0.35 0.36 0.36 0.36 0.37 0.37 0.38 0.37 0.37 0.38 0.37 0.36 0.37 0.38 0.38 0.37 0.36
0.20 0.20 0.21 0.22 0.22 0.23 0.24 0.24 0.24 0.24 0.25 0.25 0.25 0.26 0.25 0.25 0.25 0.25 0.27 0.29 0.30 0.30 0.29 0.29 0.30 0.30 0.32 0.32 0.30 0.30 0.30 0.31 0.33 0.34 0.34 0.36 0.38 0.38 0.37 0.37 0.37 0.37 0.37 0.36 0.35 0.34 0.34 0.34 0.35 0.35 0.35 0.35 0.35 0.35 0.35 0.37 0.37 0.36 0.37 0.37 0.36 0.36 0.36
0.20 0.21 0.21 0.21 0.22 0.22 0.23 0.23 0.24 0.24 0.24 0.25 0.26 0.26 0.26 0.25 0.25 0.26 0.28 0.29 0.30 0.30 0.29 0.29 0.29 0.29 0.30 0.31 0.31 0.31 0.30 0.30 0.31 0.33 0.34 0.34 0.35 0.36 0.36 0.36 0.35 0.35 0.35 0.35 0.34 0.33 0.33 0.32 0.32 0.33 0.34 0.35 0.36 0.36 0.36 0.35 0.35 0.35 0.35 0.35 0.35 0.34 0.34
0.21 0.21 0.22 0.22 0.22 0.22 0.22 0.23 0.23 0.24 0.24 0.25 0.26 0.27 0.27 0.26 0.26 0.27 0.29 0.30 0.30 0.30 0.29 0.30 0.30 0.29 0.29 0.29 0.29 0.30 0.30 0.30 0.30 0.31 0.32 0.33 0.34 0.35 0.35 0.34 0.34 0.34 0.35 0.34 0.33 0.34 0.33 0.32 0.32 0.33 0.34 0.34 0.35 0.36 0.35 0.35 0.35 0.34 0.34 0.33 0.32 0.31 0.33
0.22 0.22 0.23 0.23 0.24 0.23 0.23 0.23 0.23 0.24 0.25 0.26 0.27 0.28 0.28 0.28 0.27 0.28 0.30 0.31 0.31 0.31 0.31 0.30 0.30 0.30 0.29 0.29 0.29 0.29 0.30 0.29 0.29 0.29 0.30 0.32 0.32 0.32 0.34 0.34 0.33 0.32 0.32 0.33 0.32 0.32 0.33 0.32 0.31 0.32 0.32 0.33 0.33 0.34 0.34 0.34 0.34 0.34 0.33 0.33 0.32 0.32 0.31
0.22 0.23 0.24 0.24 0.24 0.24 0.25 0.25 0.25 0.26 0.28 0.29 0.30 0.30 0.31 0.31 0.31 0.31 0.31 0.31 0.31 0.31 0.31 0.30 0.30 0.29 0.29 0.30 0.30 0.30 0.30 0.29 0.28 0.28 0.29 0.30 0.31 0.31 0.31 0.31 0.32 0.33 0.32 0.32 0.32 0.31 0.31 0.32 0.32 0.31 0.32 0.32 0.33 0.33 0.32 0.32 0.32 0.33 0.33 0.33 0.32 0.32 0.32
0.22 0.23 0.24 0.24 0.25 0.25 0.26 0.27 0.28 0.29 0.29 0.30 0.32 0.32 0.33 0.33 0.33 0.32 0.32 0.32 0.32 0.32 0.31 0.31 0.30 0.29 0.29 0.29 0.30 0.30 0.30 0.29 0.28 0.28 0.28 0.28 0.28 0.29 0.30 0.30 0.31 0.31 0.31 0.31 0.30 0.30 0.29 0.31 0.32 0.30 0.31 0.33 0.33 0.32 0.31 0.31 0.31 0.31 0.31 0.31 0.30 0.31 0.31
0.22 0.23 0.24 0.25 0.26 0.26 0.27 0.28 0.30 0.31 0.32 0.32 0.33 0.33 0.33 0.34 0.33 0.33 0.32 0.32 0.33 0.33 0.32 0.32 0.31 0.31 0.30 0.30 0.30 0.30 0.30 0.28 0.28 0.27 0.27 0.26 0.26 0.27 0.28 0.29 0.29 0.29 0.29 0.30 0.30 0.29 0.29 0.30 0.32 0.32 0.32 0.32 0.32 0.32 0.33 0.32 0.31 0.31 0.31 0.31 0.31 0.31 0.31
0.23 0.24 0.25 0.25 0.26 0.26 0.27 0.29 0.31 0.32 0.33 0.33 0.33 0.33 0.33 0.33 0.33 0.33 0.33 0.33 0.33 0.33 0.33 0.33 0.33 0.32 0.31 0.30 0.30 0.30 0.31 0.29 0.28 0.27 0.26 0.25 0.25 0.26 0.27 0.27 0.28 0.29 0.30 0.29 0.29 0.29 0.29 0.30 0.31 0.31 0.31 0.30 0.30 0.30 0.31 0.31 0.31 0.31 0.30 0.29 0.28 0.28 0.29
0.23 0.24 0.25 0.25 0.26 0.26 0.27 0.28 0.30 0.31 0.32 0.32 0.32 0.33 0.33 0.32 0.31 0.31 0.30 0.30 0.31 0.32 0.33 0.33 0.33 0.32 0.32 0.31 0.31 0.31 0.31 0.31 0.31 0.28 0.27 0.26 0.25 0.26 0.26 0.25 0.27 0.28 0.28 0.28 0.28 0.28 0.28 0.29 0.29 0.30 0.30 0.30 0.29 0.29 0.29 0.29 0.28 0.28 0.29 0.28 0.27 0.27 0.28
0.22 0.23 0.24 0.24 0.25 0.26 0.26 0.27 0.29 0.30 0.31 0.31 0.31 0.31 0.30 0.30 0.29 0.29 0.28 0.29 0.29 0.30 0.30 0.30 0.30 0.31 0.31 0.31 0.31 0.31 0.31 0.32 0.31 0.29 0.28 0.27 0.26 0.25 0.25 0.26 0.28 0.28 0.28 0.29 0.29 0.28 0.28 0.28 0.28 0.28 0.28 0.29 0.28 0.28 0.28 0.27 0.26 0.28 0.28 0.27 0.27 0.27 0.27
0.23 0.23 0.24 0.25 0.25 0.27 0.27 0.27 0.29 0.30 0.31 0.31 0.31 0.31 0.31 0.30 0.29 0.27 0.27 0.27 0.27 0.28 0.28 0.29 0.29 0.29 0.29 0.28 0.28 0.29 0.29 0.30 0.30 0.29 0.28 0.27 0.27 0.26 0.25 0.26 0.28 0.27 0.27 0.27 0.27 0.27 0.27 0.27 0.27 0.27 0.27 0.27 0.27 0.27 0.27 0.27 0.26 0.27 0.27 0.26 0.27 0.27 0.27
0.22 0.23 0.25 0.27 0.26 0.26 0.27 0.28 0.29 0.30 0.30 0.30 0.30 0.29 0.29 0.29 0.28 0.27 0.28 0.28 0.28 0.28 0.29 0.29 0.29 0.30 0.30 0.29 0.29 0.28 0.29 0.29 0.29 0.29 0.29 0.28 0.27 0.25 0.24 0.28 0.28 0.28 0.27 0.27 0.27 0.27 0.27 0.26 0.27 0.27 0.27 0.26 0.26 0.26 0.25 0.25 0.26 0.26 0.26 0.26 0.26 0.26 0.26
0.24 0.24 0.25 0.26 0.26 0.25 0.26 0.27 0.27 0.28 0.29 0.28 0.27 0.28 0.28 0.27 0.27 0.28 0.28 0.28 0.28 0.28 0.27 0.27 0.28 0.30 0.30 0.30 0.30 0.29 0.29 0.29 0.29 0.29 0.29 0.28 0.27 0.27 0.27 0.29 0.27 0.27 0.27 0.27 0.27 0.27 0.26 0.26 0.26 0.26 0.26 0.26 0.25 0.24 0.24 0.24 0.25 0.25 0.26 0.25 0.25 0.25 0.25
0.23 0.23 0.24 0.25 0.24 0.24 0.24 0.26 0.28 0.27 0.28 0.28 0.28 0.28 0.28 0.27 0.27 0.28 0.28 0.27 0.27 0.28 0.28 0.28 0.28 0.29 0.30 0.31 0.30 0.31 0.30 0.30 0.30 0.30 0.30 0.28 0.28 0.28 0.28 0.27 0.27 0.27 0.27 0.27 0.27 0.26 0.25 0.25 0.24 0.24 0.24 0.24 0.24 0.24 0.23 0.23 0.24 0.24 0.25 0.25 0.25 0.25 0.24
0.22 0.22 0.23 0.24 0.24 0.24 0.24 0.25 0.27 0.27 0.27 0.27 0.27 0.27 0.27 0.28 0.28 0.29 0.30 0.29 0.28 0.28 0.29 0.30 0.30 0.30 0.30 0.30 0.31 0.31 0.31 0.31 0.31 0.31 0.31 0.30 0.30 0.30 0.30 0.29 0.28 0.27 0.26 0.25 0.25 0.24 0.23 0.23 0.23 0.23 0.23 0.23 0.23 0.23 0.23 0.23 0.23 0.23 0.24 0.24 0.25 0.25 0.25
0.21 0.21 0.22 0.22 0.22 0.23 0.24 0.25 0.25 0.26 0.26 0.26 0.27 0.27 0.27 0.28 0.29 0.30 0.30 0.30 0.29 0.30 0.30 0.30 0.30 0.31 0.31 0.32 0.32 0.32 0.32 0.32 0.33 0.32 0.32 0.32 0.31 0.30 0.29 0.28 0.27 0.26 0.25 0.24 0.24 0.23 0.22 0.22 0.22 0.22 0.22 0.23 0.23 0.23 0.23 0.22 0.22 0.23 0.23 0.23 0.24 0.24 0.24
0.21 0.21 0.21 0.22 0.21 0.22 0.23 0.24 0.24 0.24 0.25 0.26 0.27 0.27 0.28 0.29 0.30 0.31 0.31 0.30 0.30 0.30 0.30 0.30 0.30 0.30 0.31 0.31 0.31 0.32 0.32 0.32 0.32 0.32 0.32 0.32 0.31 0.30 0.29 0.28 0.27 0.26 0.25 0.24 0.23 0.23 0.22 0.22 0.22 0.22 0.23 0.23 0.24 0.24 0.23 0.22 0.21 0.22 0.22 0.22 0.23 0.23 0.22
0.21 0.21 0.22 0.22 0.22 0.22 0.23 0.24 0.24 0.24 0.25 0.26 0.27 0.27 0.29 0.31 0.31 0.31 0.31 0.30 0.29 0.29 0.29 0.29 0.29 0.29 0.30 0.30 0.30 0.30 0.30 0.30 0.30 0.30 0.30 0.30 0.29 0.28 0.28 0.27 0.26 0.25 0.24 0.23 0.23 0.22 0.22 0.22 0.22 0.22 0.22 0.23 0.23 0.23 0.22 0.21 0.20 0.20 0.20 0.21 0.21 0.20 0.20
0.22 0.22 0.22 0.22 0.22 0.22 0.23 0.23 0.24 0.24 0.25 0.27 0.27 0.29 0.30 0.31 0.30 0.30 0.30 0.29 0.29 0.29 0.28 0.28 0.28 0.28 0.29 0.29 0.29 0.29 0.29 0.29 0.29 0.29 0.28 0.28 0.28 0.27 0.27 0.26 0.24 0.23 0.23 0.22 0.22 0.21 0.21 0.21 0.22 0.22 0.22 0.22 0.22 0.21 0.21 0.20 0.19 0.19 0.19 0.19 0.19 0.18 0.18
0.22 0.22 0.23 0.23 0.23 0.23 0.23 0.23 0.23 0.24 0.25 0.26 0.27 0.29 0.29 0.29 0.29 0.28 0.28 0.28 0.28 0.28 0.28 0.28 0.28 0.28 0.28 0.27 0.27 0.27 0.27 0.27 0.27 0.26 0.26 0.26 0.26 0.25 0.25 0.24 0.24 0.24 0.23 0.22 0.21 0.21 0.21 0.21 0.21 0.21 0.21 0.21 0.21 0.20 0.19 0.19 0.19 0.19 0.18 0.18 0.17 0.17 0.17
0.24 0.25 0.25 0.25 0.25 0.24 0.23 0.23 0.23 0.24 0.27 0.28 0.29 0.29 0.29 0.28 0.28 0.27 0.27 0.27 0.28 0.27 0.27 0.27 0.26 0.25 0.25 0.24 0.24 0.24 0.24 0.24 0.24 0.24 0.25 0.24 0.24 0.23 0.23 0.22 0.22 0.21 0.21 0.21 0.21 0.20 0.20 0.20 0.20 0.20 0.20 0.20 0.19 0.19 0.18 0.18 0.18 0.17 0.17 0.17 0.17 0.17 0.17
0.25 0.26 0.26 0.26 0.27 0.27 0.25 0.24 0.25 0.27 0.28 0.29 0.29 0.30 0.29 0.29 0.29 0.28 0.28 0.28 0.28 0.27 0.25 0.24 0.24 0.23 0.23 0.22 0.22 0.22 0.22 0.22 0.23 0.22 0.22 0.22 0.22 0.21 0.21 0.21 0.21 0.21 0.21 0.21 0.21 0.20 0.20 0.20 0.20 0.19 0.19 0.19 0.18 0.17 0.17 0.17 0.17 0.16 0.16 0.16 0.16 0.16 0.16
0.27 0.27 0.27 0.27 0.26 0.28 0.28 0.28 0.28 0.28 0.29 0.29 0.30 0.30 0.29 0.29 0.29 0.29 0.28 0.28 0.26 0.25 0.24 0.23 0.22 0.22 0.22 0.22 0.22 0.22 0.22 0.22 0.22 0.21 0.21 0.20 0.20 0.21 0.21 0.21 0.20 0.20 0.20 0.20 0.20 0.20 0.20 0.20 0.19 0.19 0.18 0.17 0.17 0.17 0.17 0.16 0.16 0.16 0.16 0.16 0.15 0.15 0.15
0.27 0.27 0.27 0.27 0.28 0.28 0.28 0.28 0.28 0.29 0.29 0.29 0.30 0.29 0.29 0.29 0.29 0.28 0.28 0.27 0.26 0.24 0.23 0.23 0.22 0.22 0.22 0.22 0.21 0.21 0.22 0.22 0.21 0.21 0.20 0.20 0.20 0.20 0.20 0.20 0.20 0.21 0.20 0.20 0.19 0.19 0.18 0.18 0.18 0.18 0.18 0.18 0.18 0.17 0.16 0.16 0.16 0.15 0.15 0.15 0.15 0.14 0.14
0.26 0.27 0.27 0.27 0.28 0.29 0.28 0.28 0.29 0.29 0.30 0.30 0.30 0.30 0.29 0.29 0.28 0.28 0.27 0.26 0.24 0.23 0.22 0.22 0.22 0.22 0.21 0.22 0.21 0.21 0.21 0.21 0.21 0.21 0.20 0.20 0.20 0.20 0.20 0.20 0.21 0.21 0.20 0.20 0.20 0.20 0.19 0.19 0.19 0.19 0.19 0.18 0.17 0.16 0.15 0.15 0.15 0.15 0.14 0.14 0.14 0.13 0.13
0.25 0.26 0.27 0.27 0.27 0.28 0.29 0.29 0.29 0.29 0.30 0.30 0.29 0.29 0.28 0.28 0.27 0.27 0.27 0.25 0.23 0.23 0.22 0.22 0.22 0.22 0.21 0.21 0.21 0.21 0.21 0.21 0.21 0.21 0.20 0.20 0.20 0.20 0.20 0.20 0.21 0.20 0.20 0.20 0.20 0.20 0.20 0.20 0.19 0.19 0.18 0.17 0.16 0.16 0.15 0.14 0.14 0.14 0.13 0.13 0.13 0.12 0.12
0.23 0.25 0.27 0.27 0.27 0.28 0.28 0.28 0.28 0.28 0.28 0.29 0.29 0.28 0.27 0.27 0.25 0.23 0.23 0.24 0.23 0.23 0.22 0.22 0.21 0.21 0.21 0.21 0.21 0.21 0.21 0.21 0.21 0.21 0.20 0.20 0.20 0.20 0.20 0.20 0.20 0.20 0.20 0.20 0.20 0.20 0.19 0.19 0.19 0.18 0.17 0.16 0.15 0.14 0.14 0.13 0.13 0.13 0.12 0.12 0.11 0.11 0.11
0.21 0.23 0.25 0.26 0.27 0.28 0.28 0.29 0.28 0.28 0.28 0.28 0.28 0.27 0.26 0.23 0.22 0.22 0.22 0.22 0.22 0.22 0.22 0.22 0.22 0.22 0.21 0.21 0.21 0.21 0.21 0.21 0.21 0.21 0.21 0.20 0.20 0.20 0.20 0.20 0.20 0.20 0.20 0.20 0.20 0.19 0.19 0.19 0.17 0.16 0.15 0.14 0.14 0.13 0.13 0.12 0.12 0.11 0.11 0.11 0.11 0.11 0.11
Wind_Speed
25 26 27 28 28 27 28 29 30 31 32 33 34 35 37 38 40 42 44 47 50 52 54 58 61 62 61 60 60 61 62 62 62 61 61 60 60 60 60 59 58 58 57 56 56 57 57 57 57 58 58 56 55 56 56 56 55 54 53 53 52 51 51
24 24 25 26 26 26 26 27 28 28 29 31 32 32 34 35 37 39 41 43 45 48 50 53 57 59 60 60 59 59 60 61 61 60 60 60 59 58 58 59 58 58 57 55 55 55 56 57 57 58 58 57 56 56 56 56 55 54 54 53 52 52 51
24 24 24 24 25 25 25 25 25 26 27 28 29 30 31 32 34 36 37 39 41 44 46 48 52 56 57 58 58 58 58 60 60 60 59 59 58 58 57 57 57 57 56 55 54 54 55 56 57 58 58 58 57 56 56 56 55 55 54 53 53 52 52
23 23 23 24 23 23 23 23 23 24 25 25 26 27 28 29 31 33 34 36 37 40 42 45 48 51 54 55 56 57 57 58 59 59 59 58 57 57 57 56 56 56 56 54 53 53 53 54 55 56 57 57 56 56 57 57 56 55 55 54 53 53 52
22 22 23 23 23 23 23 22 22 23 23 24 24 24 25 27 28 30 31 33 34 36 38 41 44 47 50 52 54 55 55 56 57 58 58 58 56 56 55 55 55 56 55 55 54 53 52 52 53 53 54 55 55 56 56 57 57 56 55 54 54 53 53
22 22 23 24 24 25 24 24 23 23 23 23 23 23 24 25 26 27 29 30 31 33 35 37 40 43 45 49 51 53 53 54 55 56 57 57 56 55 54 53 54 54 54 55 54 53 52 52 52 52 52 53 54 55 55 56 56 56 56 55 55 54 53
22 23 24 25 25 26 26 25 25 24 24 24 24 24 24 24 25 26 27 28 29 30 31 34 36 38 41 45 48 51 52 52 53 54 55 55 55 54 53 52 52 52 53 53 53 53 53 52 52 51 51 52 52 53 54 55 56 56 56 55 55 54 53
23 23 24 25 25 26 27 27 26 26 25 25 25 25 25 25 25 25 25 26 27 28 29 31 33 35 37 40 43 47 50 52 52 52 53 54 54 54 53 52 51 51 51 51 51 52 52 52 52 51 51 51 51 52 53 54 55 56 56 55 55 54 53
22 23 24 24 25 26 27 27 27 27 27 27 27 26 26 25 25 25 25 25 26 26 27 28 30 32 34 36 39 42 46 49 51 51 51 52 53 53 53 52 51 51 50 50 50 50 51 51 52 52 51 51 52 52 52 53 54 55 55 55 55 54 54
21 22 23 23 24 25 26 27 27 28 28 28 28 27 27 26 25 25 25 25 25 26 26 26 27 29 32 34 36 39 42 45 48 50 50 50 51 52 52 52 52 51 51 50 50 50 50 50 51 52 52 52 52 52 51 52 52 53 54 54 54 54 54
19 20 21 22 23 24 25 26 27 28 28 28 28 27 27 27 26 25 25 25 25 26 25 25 26 27 29 31 33 36 38 40 43 46 48 50 50 51 52 52 52 52 51 51 50 50 50 50 50 51 51 51 51 52 51 51 52 52 53 53 53 53 53
18 18 19 19 20 22 23 24 26 28 28 28 28 28 27 27 26 26 25 26 26 26 25 25 25 25 26 28 31 33 35 37 39 42 45 47 49 50 51 52 52 52 52 52 51 51 51 51 51 51 51 51 51 52 52 52 52 52 52 52 52 52 52
15 15 16 17 18 19 19 20 22 24 25 26 26 26 26 25 25 25 26 26 25 25 25 25 25 25 25 26 28 30 32 34 36 38 41 44 46 48 49 51 52 53 52 52 52 52 52 51 51 51 51 51 51 51 52 52 52 52 52 51 52 52 51
11 12 13 13 14 15 15 16 18 20 22 23 23 24 24 24 24 25 25 25 25 25 25 25 25 25 25 25 26 27 29 31 33 35 37 40 43 45 47 48 50 51 52 52 52 53 53 52 52 52 52 52 52 52 52 53 53 52 52 51 50 50 50
9 10 10 11 11 13 14 15 16 17 19 20 21 22 22 22 23 24 25 25 25 25 25 25 25 25 25 26 26 27 28 29 30 31 34 36 39 42 44 46 47 49 50 51 51 52 53 52 52 52 52 52 53 53 53 53 53 53 52 51 50 50 51
8 8 9 10 10 12 13 13 14 15 16 18 19 20 21 21 22 23 24 24 25 25 25 26 26 26 26 27 27 28 29 29 29 30 31 33 35 37 40 42 44 46 47 49 50 51 51 51 52 52 52 53 53 53 53 52 52 52 52 52 51 51 52
7 7 8 9 10 11 12 13 13 14 15 17 18 19 20 20 21 22 23 23 24 25 26 26 27 28 28 28 28 29 31 31 31 31 31 32 33 34 36 38 40 42 44 46 47 49 50 50 51 51 52 53 53 53 53 53 53 53 53 52 52 52 52
7 7 8 8 9 10 12 12 13 14 15 16 17 18 19 20 21 22 22 23 24 25 26 27 28 29 29 29 30 31 32 33 33 32 32 33 33 33 34 35 36 38 40 42 44 46 47 48 49 50 51 52 53 53 53 53 53 53 53 53 53 52 52
7 7 8 8 8 9 10 11 12 13 14 14 15 16 17 18 19 20 22 23 24 25 26 27 28 29 29 30 30 31 33 33 34 34 34 34 34 35 35 34 35 36 37 38 40 42 43 45 46 47 49 50 51 52 52 53 53 53 52 53 52 52 51
7 8 8 8 9 10 10 11 12 13 13 14 14 15 15 16 18 19 21 22 23 24 25 26 27 29 30 30 31 31 32 33 34 34 34 35 35 35 35 35 35 36 36 36 38 39 39 41 43 44 46 47 49 50 51 51 51 51 51 51 51 51 51
9 9 9 10 10 11 11 12 12 13 14 14 14 14 15 16 17 19 20 21 22 23 24 25 26 27 28 30 31 31 32 33 34 35 35 35 36 36 36 35 36 37 37 37 37 37 37 38 39 40 42 43 45 46 47 48 49 49 50 50 50 50 50
10 11 10 10 11 11 11 12 12 12 13 13 13 14 14 15 16 17 18 19 20 21 22 23 24 25 27 28 29 30 31 32 33 34 34 35 36 36 36 36 36 37 38 38 38 37 37 37 37 38 38 39 39 41 42 43 45 46 47 48 48 49 49
10 10 10 10 10 10 10 10 10 10 10 11 11 12 13 13 14 15 15 16 17 18 19 20 21 23 24 26 27 28 30 31 32 33 33 34 35 35 35 35 35 36 37 37 38 38 37 37 38 37 37 37 37 37 38 38 39 40 41 42 42 43 44
11 11 10 10 9 9 8 7 7 7 7 8 8 9 9 10 10 11 11 11 12 13 14 15 16 18 20 21 23 24 26 27 29 30 30 32 33 33 33 34 34 35 35 35 36 37 37 37 37 37 37 37 36 36 36 36 35 35 36 36 36 36 37
12 12 11 9 8 7 6 6 5 5 6 6 6 7 7 7 8 8 8 8 8 9 10 11 12 13 15 16 18 19 20 22 23 25 27 28 29 29 30 32 32 33 34 34 35 35 35 35 36 36 36 36 36 36 35 35 35 34 33 33 33 33 33
13 12 10 9 8 7 6 6 5 4 4 4 4 4 5 5 4 4 4 4 5 6 6 7 8 9 10 12 13 14 16 17 19 21 22 23 24 26 27 28 29 30 32 33 34 34 34 34 35 35 35 35 35 35 35 35 34 33 33 32 32 32 32
13 11 10 9 8 8 7 5 3 3 3 3 2 2 2 2 2 1 1 2 2 3 4 4 5 6 7 8 9 11 12 13 15 16 17 19 20 22 23 23 24 26 28 29 31 32 34 34 34 34 35 35 34 34 34 34 33 32 32 31 31 31 30
14 12 11 10 9 8 7 5 2 2 2 1 1 1 2 1 0 0 1 1 0 1 1 2 3 4 4 5 6 7 8 9 11 12 13 15 16 17 18 18 19 21 22 24 26 28 30 31 32 33 33 33 33 33 33 32 32 31 30 30 29 28 28
14 13 12 12 10 8 5 3 1 1 1 1 0 2 2 1 1 1 2 2 2 2 2 2 3 3 4 4 5 5 6 7 8 9 10 11 12 13 14 15 16 17 19 20 22 23 26 27 28 29 30 30 31 31 30 30 29 29 28 28 27 26 26
14 14 13 13 11 7 4 2 1 1 1 1 2 3 3 3 3 2 3 3 4 3 3 3 4 4 4 5 5 5 6 7 7 8 8 8 9 10 11 12 13 15 16 18 19 21 23 24 25 25 26 26 26 27 27 27 27 26 26 26 25 25 25
15 14 14 13 12 8 6 4 3 3 3 3 4 5 4 4 4 4 4 4 4 4 4 4 4 4 4 5 6 6 7 8 8 8 8 8 8 9 10 11 12 13 15 17 18 19 21 22 22 22 22 23 23 24 24 24 24 24 25 24 24 24 24
15 14 14 14 13 10 8 6 5 5 5 5 5 5 5 5 5 5 5 5 4 4 4 4 4 5 5 6 7 7 8 8 9 9 8 8 8 9 9 10 12 13 14 15 17 18 19 20 20 20 20 21 21 22 22 22 22 23 23 23 22 22 22
15 14 13 13 13 11 9 7 6 6 6 6 6 5 5 5 5 5 5 5 4 4 4 4 4 5 5 6 7 8 9 9 9 9 9 9 9 9 10 11 12 13 14 15 16 17 18 18 18 19 19 19 20 20 21 21 21 21 21 21 21 21 21
15 14 13 12 12 11 9 7 6 6 6 6 6 6 6 5 5 5 5 4 4 4 4 4 4 4 5 6 7 8 9 9 9 9 9 9 9 10 10 11 12 13 14 14 15 16 17 17 17 18 18 19 19 19 19 19 20 20 20 20 20 20 20
14 14 13 12 11 10 8 6 5 6 6 6 6 5 5 4 4 4 4 4 4 4 4 4 5 5 6 7 8 8 9 9 9 9 9 10 10 10 11 12 12 12 13 14 14 15 16 16 16 17 17 18 18 18 18 18 19 19 19 19 19 19 19
14 13 12 12 10 10 8 6 6 6 6 5 4 3 3 3 3 4 4 4 4 4 4 5 5 5 6 7 8 8 8 9 9 9 9 9 10 10 11 12 12 12 13 13 13 14 14 15 15 15 16 16 16 16 16 17 17 17 17 17 17 18 18
Wind_Direction
266 261 256 252 251 251 251 250 249 247 246 245 245 244 243 241 241 241 240 240 239 238 238 236 236 236 236 236 236 235 235 234 235 236 236 237 237 237 237 236 237 237 238 237 237 236 236 236 236 236 236 235 235 234 235 235 236 236 236 236 237 238 238
266 262 257 254 251 251 251 250 248 247 245 245 245 244 243 241 241 241 241 241 240 239 238 237 235 235 235 235 235 235 234 234 234 234 235 235 236 237 237 236 236 236 236 236 236 236 236 235 235 236 236 235 234 234 234 235 235 235 235 236 237 238 238
266 263 258 254 252 250 250 249 248 247 245 244 244 244 243 242 242 242 242 242 241 240 239 238 236 235 234 234 234 234 233 233 233 233 234 234 235 236 236 236 236 236 236 235 235 235 235 235 235 235 236 235 234 234 234 234 235 235 235 235 236 237 238
266 262 257 253 251 250 250 250 249 247 245 244 244 244 244 244 243 243 243 243 242 241 240 238 236 235 233 232 233 233 233 232 232 232 232 233 234 235 235 235 235 235 235 235 235 235 235 235 235 235 235 235 234 233 233 234 234 234 235 235 236 237 237
264 260 257 253 251 250 250 249 249 248 246 245 245 245 244 244 244 244 244 244 243 242 240 239 237 235 233 231 232 232 232 232 231 231 231 232 233 234 234 235 234 234 234 234 234 234 234 234 234 234 234 234 233 233 233 234 234 234 235 235 236 237 237
265 262 259 255 252 250 249 248 248 248 247 246 246 245 245 245 246 245 245 244 243 242 241 239 237 235 233 231 231 231 232 232 231 231 230 231 231 232 233 233 234 233 233 234 234 233 233 233 233 233 233 233 233 232 232 233 233 234 235 236 237 237 237
267 264 260 256 252 249 248 247 246 246 246 246 246 246 246 247 248 247 246 244 243 242 241 240 238 236 233 232 231 231 231 231 231 231 231 230 231 231 231 231 232 232 232 232 233 233 232 232 232 232 232 232 232 232 232 232 232 233 234 235 236 237 237
269 265 260 256 252 249 248 247 246 245 245 245 245 246 247 248 248 247 245 244 243 242 242 241 239 236 234 233 233 232 231 231 231 231 231 231 231 230 230 230 231 232 232 231 231 231 231 231 231 231 231 231 231 231 232 233 233 233 234 235 236 236 236
268 265 260 256 253 250 248 248 247 246 245 246 246 247 247 248 248 247 245 243 242 241 242 241 239 237 235 234 234 233 231 230 230 230 231 231 231 231 231 231 231 231 232 231 231 231 230 231 231 231 231 231 231 232 233 233 234 234 234 235 235 236 236
266 264 260 256 254 251 249 248 247 247 246 246 246 246 246 246 247 246 244 242 241 240 241 241 239 237 235 235 234 233 231 230 230 230 231 231 231 231 231 231 231 231 232 232 232 231 231 231 231 231 232 232 233 233 233 233 234 235 234 234 235 236 236
266 264 260 257 254 252 250 248 247 247 246 245 245 244 244 244 245 244 243 242 241 240 240 240 239 238 236 234 233 232 231 230 230 230 230 231 231 231 231 231 231 231 232 232 233 232 232 232 232 232 232 233 233 233 233 233 233 234 234 234 235 236 236
267 264 261 258 255 252 250 248 247 246 245 244 244 242 242 242 242 241 241 241 241 240 240 240 239 239 237 234 232 231 230 230 230 230 231 231 231 231 231 232 232 232 232 233 233 233 233 234 234 234 233 233 233 233 233 233 233 234 234 235 235 236 237
269 265 262 260 256 253 251 248 247 245 243 242 240 239 239 239 239 239 239 240 240 240 240 239 239 239 237 235 232 231 230 230 231 232 231 231 231 231 232 232 232 233 233 233 234 234 235 235 236 236 236 235 234 233 233 233 234 234 235 236 236 236 237
270 267 264 261 256 252 249 247 246 243 240 238 238 237 238 238 238 239 239 239 239 239 239 238 238 238 237 235 233 231 230 231 232 232 232 232 232 232 232 232 232 233 233 234 235 235 236 236 236 237 237 236 236 235 234 234 235 235 235 236 236 236 236
276 273 270 266 259 254 250 248 247 244 239 237 237 237 238 238 239 239 240 240 240 239 239 238 238 238 237 235 234 232 231 231 232 232 232 233 232 232 232 232 233 233 234 234 235 235 236 237 237 237 237 237 237 236 236 236 236 236 236 236 236 237 237
279 276 273 269 264 257 252 251 250 246 242 239 239 239 239 239 240 241 241 241 241 240 240 240 240 240 239 237 235 234 232 232 233 233 233 232 232 232 232 233 233 234 234 235 236 236 236 237 237 237 236 236 236 236 236 236 237 237 237 237 238 238 239
282 279 276 272 266 259 255 253 251 249 246 245 244 244 243 242 242 243 243 242 242 242 242 242 242 241 240 239 237 236 234 234 235 235 234 232 232 232 233 233 234 235 235 236 236 236 236 237 237 236 236 235 235 235 235 235 236 237 237 238 239 240 240
293 289 284 279 272 266 261 257 255 254 252 250 248 246 246 246 246 246 246 245 245 244 244 243 242 241 241 240 239 237 236 236 236 236 235 234 233 233 233 233 234 235 236 236 237 237 236 237 237 237 236 236 235 235 235 236 237 237 238 239 241 241 241
303 298 295 291 284 276 267 261 258 257 254 250 249 248 248 248 249 249 249 249 249 247 246 245 243 242 241 241 240 239 238 237 237 236 236 235 235 235 235 234 234 234 235 236 236 236 236 236 236 237 237 236 236 235 236 237 237 238 238 239 240 240 241
309 302 298 296 293 285 275 267 262 259 255 252 252 252 251 251 252 252 253 253 252 250 249 247 245 244 242 241 241 240 239 238 238 237 237 237 237 236 236 235 234 234 234 235 235 234 234 235 235 235 236 236 236 236 237 237 237 237 238 239 239 239 240
313 306 299 296 293 286 278 273 269 264 260 257 256 256 256 256 256 256 257 256 254 251 249 247 246 245 243 242 242 241 241 240 239 238 238 238 237 237 237 236 235 235 235 236 235 234 233 234 234 234 234 234 235 236 237 237 237 237 237 238 239 239 240
319 314 308 304 300 293 283 276 271 266 262 259 259 259 259 260 261 261 261 258 255 252 251 249 247 246 244 243 242 241 241 241 240 239 239 238 238 237 237 236 237 236 236 236 235 233 232 232 232 232 231 232 233 234 235 235 236 236 236 238 240 240 241
337 330 322 317 313 307 295 280 270 266 263 259 259 260 262 263 264 263 261 258 256 254 253 251 248 246 245 244 243 242 241 242 241 240 240 239 238 237 236 236 237 236 235 234 233 232 231 231 230 230 229 229 230 231 232 232 232 232 233 235 238 239 240
351 344 337 331 326 321 309 291 275 267 262 261 262 263 265 267 267 264 261 258 257 255 252 250 246 244 242 241 241 241 241 241 240 239 238 238 237 237 236 236 236 236 235 233 232 231 231 230 229 228 227 227 227 228 229 229 229 229 230 232 235 236 237
353 347 342 338 334 327 318 305 290 269 258 261 266 268 269 269 269 267 263 260 259 254 250 246 243 241 240 240 240 239 238 238 237 237 236 235 234 234 234 235 235 235 234 232 231 230 230 229 228 226 225 224 224 225 226 226 226 227 229 231 233 234 235
352 346 340 339 337 330 322 313 297 268 250 255 266 267 265 266 268 267 264 263 261 255 247 242 240 238 238 239 238 237 236 235 235 233 231 229 229 230 232 232 233 233 232 231 230 229 228 227 225 224 222 222 222 223 224 224 225 227 229 231 232 233 234
355 348 343 342 340 333 327 321 302 262 242 252 267 262 250 255 266 270 270 268 259 247 240 237 236 233 232 231 230 229 229 229 228 226 223 222 224 226 228 229 229 230 229 228 227 226 225 223 221 220 219 220 221 222 223 224 225 227 228 230 231 231 232
355 353 350 347 344 338 332 327 308 245 226 256 282 231 206 217 6 15 353 359 140 183 201 207 208 206 205 208 211 213 216 218 216 214 214 215 218 220 221 223 224 224 223 222 221 219 218 217 216 215 216 218 220 221 222 223 225 225 226 227 228 228 229
358 360 358 354 351 348 342 334 317 217 211 269 258 177 169 137 82 69 52 60 81 96 109 129 143 153 158 166 176 184 190 193 194 195 199 203 207 210 212 214 214 214 213 211 210 208 208 208 208 210 213 215 217 219 220 221 222 222 223 223 224 225 226
5 6 6 5 5 9 13 9 21 136 146 132 138 147 146 127 106 91 74 74 80 84 96 110 116 125 134 141 149 156 161 165 167 168 172 178 186 192 194 196 198 200 200 200 200 199 198 199 201 204 207 209 210 212 214 215 216 217 218 218 220 222 224
10 11 13 14 17 26 38 44 66 100 115 120 128 133 131 119 106 90 79 78 77 78 88 100 106 114 124 129 133 138 145 150 151 149 150 155 163 171 175 178 182 184 186 187 189 190 190 191 193 196 198 200 201 203 206 208 210 212 213 215 217 219 221
13 15 17 18 22 33 47 59 75 93 107 114 119 123 121 111 97 83 76 74 73 77 85 91 96 106 117 125 130 134 138 141 143 143 145 148 151 156 161 166 171 175 176 178 180 181 182 184 186 188 190 193 195 198 200 202 204 207 210 213 215 217 218
17 16 18 21 25 34 50 68 80 89 101 109 114 119 116 105 91 83 76 68 66 76 84 89 93 102 113 123 130 134 137 138 139 140 143 147 148 150 153 157 162 168 171 174 176 178 180 182 184 185 187 190 193 194 196 198 201 204 207 209 212 214 217
18 17 18 20 24 30 44 64 81 90 102 112 116 116 112 101 89 82 73 64 65 76 85 91 96 102 113 123 130 134 136 137 137 138 139 142 143 145 147 151 156 161 166 169 171 174 176 178 181 183 185 187 189 191 193 196 199 202 205 208 211 214 218
13 16 17 18 23 28 35 54 83 94 101 112 117 114 108 98 87 78 70 66 71 80 89 96 102 108 118 125 130 133 134 135 135 137 138 139 141 142 144 147 151 155 160 163 166 169 172 175 178 180 182 183 185 188 191 195 198 202 206 210 214 218 222
9 12 14 18 23 26 32 55 85 90 87 91 94 90 88 88 86 82 78 75 77 84 94 102 107 113 120 126 128 129 130 132 133 136 139 141 143 145 147 149 152 154 157 160 163 166 170 172 174 176 179 181 184 188 192 197 201 206 211 215 220 225 230